Vorticity
21 21 21 21 21 20 20 20 20 20 20 20 20 20 20 20 20 20 20 20 19 19 18 18 17 17 16 16 16 16 15 15 16 16 16 16 16 16 16 16 16 16 16 15 14 14 13 14 13 12 11 9 8 7 6 4 3 3 2 2 2 2 2 2 2 2 2 2 2
27 27 26 25 24 23 22 21 20 20 19 19 20 20 20 21 21 21 21 21 22 21 21 21 21 21 21 21 21 22 22 21 22 22 22 22 22 22 22 22 21 21 20 19 17 16 15 14 13 13 12 10 9 8 7 6 5 4 3 3 3 2 2 2 2 2 2 2 2
30 29 29 28 27 25 23 21 20 18 18 18 18 18 18 19 19 19 20 20 20 21 21 21 22 22 22 23 23 24 24 25 25 25 25 25 25 25 25 25 24 23 22 21 19 17 16 15 14 13 12 11 10 10 9 8 6 5 5 4 4 3 3 3 3 3 3 3 3
28 28 28 27 26 25 23 21 19 18 17 16 15 15 15 16 16 16 16 16 17 17 17 17 17 17 17 18 18 18 19 20 20 21 22 22 23 23 23 24 23 23 22 21 19 18 17 15 14 13 13 12 11 11 10 10 8 7 6 6 5 4 4 4 4 3 3 3 3
25 25 25 25 24 24 23 21 20 18 17 15 15 14 14 13 13 13 13 13 13 13 13 13 13 13 13 13 13 13 13 13 14 15 15 16 17 18 19 20 20 20 20 19 19 18 17 15 15 14 13 12 11 11 10 10 9 9 8 7 6 5 5 5 4 4 4 4 4
25 25 25 26 25 25 24 24 22 20 19 17 16 15 14 13 12 12 11 11 11 11 11 11 11 11 11 11 11 11 12 12 12 12 12 13 13 14 15 16 17 17 17 17 17 17 16 16 15 14 13 13 12 11 11 10 10 9 9 8 7 7 6 6 5 5 4 4 4
26 27 27 28 28 28 27 27 25 23 21 20 18 17 15 14 13 12 11 11 11 11 11 10 10 10 10 11 11 11 11 11 12 12 12 12 12 13 13 14 15 15 16 16 16 16 16 15 15 14 14 13 13 12 11 11 10 10 9 9 8 8 7 7 6 5 5 5 4
27 27 27 27 28 28 28 28 27 25 24 23 21 20 18 17 17 16 15 15 14 14 13 13 12 11 11 11 11 11 11 11 11 11 11 11 12 12 12 13 13 14 15 15 15 15 15 15 15 15 14 14 13 13 12 11 11 10 10 10 9 9 8 7 7 7 6 6 5
24 25 25 25 26 26 27 27 26 26 25 25 24 24 23 22 22 21 21 20 19 18 17 17 16 15 13 13 12 11 11 10 10 10 10 10 11 11 11 12 12 13 13 14 14 15 15 15 15 15 15 14 14 13 13 12 12 11 11 10 10 9 9 9 8 8 8 7 7
21 22 22 21 22 22 23 23 24 25 25 24 25 24 24 24 23 23 22 22 21 20 19 19 18 17 16 15 14 13 12 11 10 10 10 10 10 10 10 11 11 11 12 13 13 14 14 14 15 15 15 15 15 14 14 13 13 12 12 11 11 11 10 10 10 9 9 9 8
18 18 18 18 18 18 19 20 20 21 21 21 21 21 21 21 21 21 22 22 22 22 22 22 21 20 19 18 17 16 15 13 12 11 11 10 9 9 9 10 10 10 11 11 12 12 13 13 14 14 15 15 15 15 15 14 14 13 13 12 12 12 11 11 11 10 10 9 9
15 15 15 15 16 16 16 16 16 16 16 16 16 17 18 19 21 23 26 28 30 31 32 32 31 30 30 28 27 25 23 21 19 17 15 13 12 11 10 9 9 9 9 10 10 11 11 12 12 13 13 14 14 14 14 14 13 13 13 13 12 12 11 11 10 10 9 9 8
14 13 12 12 11 11 10 10 10 10 11 12 14 17 21 24 28 32 36 39 41 42 43 44 44 44 43 42 40 39 36 34 31 29 26 23 20 17 15 13 11 10 9 9 9 9 9 10 10 11 11 11 11 12 12 11 11 11 11 11 10 10 9 9 9 8 8 7 7
10 8 6 4 3 3 3 4 5 7 9 12 18 23 27 29 30 31 32 34 37 40 44 46 49 50 51 51 51 51 50 48 46 43 40 37 34 31 27 24 20 17 15 13 11 10 9 9 9 9 9 9 9 9 9 9 9 9 9 9 9 9 9 9 9 9 9 10 11
4 3 2 2 3 4 6 7 9 11 14 18 23 25 25 21 16 12 10 10 14 20 27 33 39 44 48 51 53 54 55 56 55 54 52 51 48 45 42 38 35 31 27 23 20 18 16 14 13 12 11 10 10 10 10 10 11 11 12 12 13 14 15 16 17 18 19 20 22
5 8 10 12 14 15 16 16 17 18 20 21 21 18 14 9 7 5 2 -3 -4 -2 3 9 17 25 32 38 43 48 51 54 56 57 57 57 56 54 52 50 47 44 41 38 34 31 29 26 24 23 22 21 21 21 21 21 21 22 23 24 25 26 27 28 30 32 34 35 37
17 21 23 24 23 23 23 23 23 22 20 17 13 9 7 7 10 13 13 10 5 1 -1 -3 0 5 11 18 24 31 37 42 46 50 52 54 54 55 55 54 53 51 50 48 45 43 41 40 38 37 35 35 34 34 34 34 34 35 36 37 38 39 41 42 43 44 46 47 47
27 27 27 25 23 23 23 23 22 19 15 9 6 5 6 8 11 14 18 22 23 21 17 11 6 3 3 5 8 12 17 23 28 33 37 40 43 45 47 48 49 50 50 49 48 48 47 46 45 44 43 43 42 42 42 42 43 44 44 45 46 46 46 46 46 46 45 44 43
22 20 17 16 16 16 18 19 18 15 10 6 3 3 5 8 11 14 19 24 29 32 33 31 26 21 16 13 11 11 11 13 16 18 20 23 27 31 34 38 39 40 41 41 42 42 42 42 42 42 42 42 43 43 43 44 43 43 42 42 41 40 38 37 35 34 32 30 29
11 9 7 7 8 9 10 10 10 8 5 3 4 7 11 14 16 18 20 22 24 27 30 32 32 30 28 25 22 19 16 14 13 13 14 16 19 21 24 26 27 28 29 30 32 34 35 36 37 38 38 38 38 37 36 34 32 31 29 27 26 24 22 21 19 18 17 16 16
7 6 5 5 5 5 5 5 5 5 6 8 13 16 18 17 15 13 12 12 12 13 14 16 18 19 19 19 17 15 13 11 10 9 9 8 9 9 11 12 13 15 16 18 20 21 22 23 23 24 24 23 22 21 19 17 15 13 12 10 9 8 7 7 6 6 6 5 5
9 10 11 12 12 13 14 15 16 17 17 18 17 15 12 9 6 5 4 3 3 3 3 4 5 5 6 6 6 6 6 5 4 4 3 3 3 3 3 3 3 4 4 5 6 6 7 7 7 7 6 6 6 5 4 4 3 3 3 2 2 2 1 1 1 1 1 1 1
17 20 22 24 25 26 26 26 24 21 18 14 10 7 4 3 3 3 3 2 2 2 2 1 1 1 2 2 2 2 2 2 2 2 2 3 3 2 2 2 2 1 1 1 1 1 1 1 1 1 1 1 1 1 1 1 2 2 2 2 2 2 2 2 2 2 2 2 3
24 25 25 23 22 20 18 16 13 10 7 5 4 3 3 3 3 3 3 3 3 3 3 2 2 2 2 2 2 2 2 2 2 2 2 2 2 2 2 2 2 2 2 2 2 2 2 2 2 2 2 3 3 3 3 3 3 3 3 3 3 3 3 3 4 4 4 4 4
18 16 13 10 8 7 5 4 4 3 3 3 3 3 3 3 3 3 3 3 3 3 3 3 3 3 3 3 3 3 3 3 3 3 3 3 3 3 3 3 3 3 3 3 3 3 3 3 3 4 4 4 4 4 4 4 4 4 5 5 5 5 5 5 5 5 5 5 5
7 5 4 3 3 3 3 3 3 3 3 3 3 2 2 2 2 2 2 2 2 2 3 3 3 3 3 3 3 3 3 4 4 4 4 4 4 4 4 4 4 4 4 4 4 4 5 5 5 5 5 5 5 5 5 5 5 6 6 6 6 6 6 6 6 6 6 6 6
4 4 4 4 4 4 4 3 3 3 2 2 2 2 2 2 2 2 2 3 3 3 3 3 3 3 3 4 4 4 4 4 5 5 5 5 5 5 5 5 6 6 6 6 6 6 6 6 6 6 6 6 7 7 7 7 7 7 7 7 7 7 7 6 6 6 6 6 6
6 6 5 5 4 3 3 3 2 2 2 2 2 2 2 2 2 3 3 3 3 3 3 3 3 4 4 4 4 4 5 5 5 5 5 6 6 6 6 6 7 7 7 7 7 7 7 7 7 7 7 7 7 7 7 7 7 7 7 7 7 6 6 6 6 6 6 6 5
6 5 4 3 3 3 2 2 2 2 2 2 2 2 2 3 3 3 3 3 3 3 3 3 4 4 4 4 5 5 5 5 6 6 6 6 7 7 7 7 7 7 7 7 7 7 7 7 7 7 7 7 7 7 7 7 7 7 6 6 6 6 6 6 6 6 5 5 5
4 3 3 2 2 2 2 2 2 2 2 2 2 3 3 3 3 3 3 3 3 4 4 4 4 4 4 5 5 5 5 6 6 6 6 7 7 7 7 7 7 8 8 8 8 8 8 8 8 8 7 7 7 7 7 7 7 7 7 7 6 6 6 6 6 6 6 6 6
3 3 2 2 2 2 2 2 2 2 2 3 3 3 3 3 4 4 4 4 4 4 4 4 5 5 5 5 5 6 6 6 6 7 7 7 7 7 8 8 8 8 8 8 8 8 8 8 8 8 8 8 8 8 7 7 7 7 7 7 7 7 7 7 6 6 6 6 6
3 2 2 2 2 2 2 2 3 3 3 3 3 3 4 4 4 4 4 4 4 5 5 5 5 5 5 6 6 6 6 6 7 7 7 7 7 8 8 8 8 8 9 9 9 8 8 8 8 8 8 8 8 8 8 7 7 7 7 7 7 7 7 7 7 6 6 6 6
3 2 2 2 3 3 3 3 3 3 3 3 3 4 4 4 4 5 5 5 5 5 5 5 5 6 6 6 6 6 6 7 7 7 7 8 8 8 8 8 8 8 8 8 8 8 8 8 8 8 8 8 7 7 7 7 7 7 7 7 7 7 6 6 6 6 6 6 6
3 3 3 3 3 3 3 3 3 3 3 4 4 4 5 5 5 5 5 5 5 5 5 6 6 6 6 6 6 6 7 7 7 7 8 8 8 8 8 8 8 8 8 7 7 7 7 7 7 7 7 7 7 7 7 7 6 6 6 6 6 6 6 6 6 6 6 6 6
3 3 3 3 3 3 3 3 4 4 4 4 5 5 5 5 5 5 5 5 5 5 5 6 6 6 6 6 6 7 7 7 7 7 7 7 7 7 7 7 7 7 7 7 7 6 6 6 6 6 6 6 6 6 6 6 6 6 6 6 6 6 6 7 7 7 7 7 7
3 3 3 3 3 4 4 4 4 4 4 5 5 5 5 5 5 5 5 5 5 5 6 6 6 6 6 6 7 7 7 7 7 7 7 7 7 7 6 6 6 6 6 6 6 6 6 6 6 6 6 6 6 6 6 6 6 7 7 7 7 7 7 7 7 7 7 7 7
3 4 4 4 4 4 4 4 4 5 5 5 5 5 5 5 5 5 5 5 5 5 5 6 6 6 6 6 6 6 6 6 6 6 6 6 6 6 6 5 5 5 5 5 5 5 6 6 6 6 6 6 6 6 7 7 7 7 7 7 8 8 8 8 8 8 8 8 8
4 4 4 4 4 4 4 5 5 5 5 5 5 5 5 5 5 5 5 5 5 5 5 5 5 6 6 6 6 6 6 6 6 6 5 5 5 5 5 5 5 5 5 5 5 5 5 6 6 6 6 7 7 7 7 7 7 8 8 8 8 8 8 9 8 8 8 8 8
4 4 4 4 4 5 5 5 5 5 5 5 5 5 5 5 5 5 5 5 5 5 5 5 5 5 5 5 5 5 5 5 5 5 5 5 5 5 5 5 5 5 5 5 5 5 5 6 6 6 7 7 7 7 7 7 8 8 8 8 8 9 9 9 8 8 8 8 8
5 5 5 5 5 5 5 5 5 5 5 5 5 5 5 5 5 5 5 5 5 5 5 5 5 5 5 5 5 5 5 5 5 5 4 4 4 4 4 5 5 5 5 5 5 5 6 6 6 7 7 7 7 7 7 8 8 8 8 8 8 8 8 8 8 8 8 8 8
5 5 5 5 5 5 5 5 5 5 5 5 5 5 5 4 4 4 4 4 4 4 4 5 5 5 5 5 5 5 5 5 4 4 4 4 4 4 4 5 5 5 5 5 5 6 6 6 6 7 7 7 7 7 7 8 8 8 8 8 8 8 8 8 8 8 8 8 8
Height
5637 5638 5638 5639 5640 5641 5642 5643 5644 5645 5646 5647 5648 5649 5650 5651 5652 5653 5654 5655 5655 5656 5657 5657 5658 5658 5659 5660 5660 5661 5661 5662 5662 5663 5664 5665 5666 5667 5668 5669 5671 5672 5674 5675 5677 5678 5680 5682 5683 5684 5686 5687 5688 5689 5691 5692 5693 5694 5695 5697 5697 5698 5699 5700 5701 5702 5702 5703 5703
5633 5634 5634 5635 5636 5637 5638 5639 5640 5641 5642 5644 5645 5646 5647 5647 5648 5649 5650 5651 5651 5652 5653 5653 5654 5654 5655 5655 5656 5657 5657 5657 5658 5659 5660 5661 5662 5662 5664 5665 5666 5668 5669 5671 5672 5674 5676 5677 5679 5680 5682 5683 5684 5685 5687 5688 5689 5691 5692 5692 5694 5695 5696 5696 5697 5697 5698 5699 5699
5629 5630 5631 5632 5632 5633 5634 5635 5637 5638 5639 5640 5641 5642 5643 5644 5645 5646 5646 5647 5648 5648 5649 5650 5650 5651 5651 5652 5652 5652 5653 5653 5654 5655 5655 5656 5657 5658 5659 5661 5662 5663 5665 5667 5668 5670 5672 5673 5675 5676 5677 5679 5680 5682 5682 5684 5685 5687 5688 5689 5690 5691 5692 5692 5693 5693 5694 5694 5695
5626 5626 5627 5628 5629 5630 5631 5632 5633 5635 5636 5637 5638 5639 5640 5641 5642 5642 5643 5644 5644 5645 5646 5646 5647 5647 5647 5648 5648 5649 5649 5649 5650 5651 5651 5652 5653 5654 5655 5657 5658 5660 5661 5663 5664 5666 5667 5669 5671 5672 5673 5675 5676 5677 5679 5680 5682 5683 5684 5685 5686 5687 5688 5688 5688 5689 5690 5690 5691
5623 5623 5624 5625 5626 5627 5628 5629 5630 5632 5633 5634 5635 5636 5637 5638 5639 5639 5640 5641 5641 5642 5642 5643 5643 5643 5644 5644 5645 5645 5645 5646 5646 5647 5647 5648 5649 5650 5652 5653 5654 5656 5657 5659 5660 5662 5663 5665 5667 5668 5669 5671 5672 5673 5675 5676 5678 5679 5680 5681 5682 5683 5683 5684 5684 5685 5686 5686 5686
5620 5621 5621 5622 5623 5624 5625 5626 5627 5629 5630 5631 5632 5633 5634 5635 5636 5637 5637 5638 5638 5639 5639 5639 5640 5640 5640 5641 5641 5641 5642 5642 5642 5643 5644 5645 5646 5647 5648 5649 5651 5652 5653 5655 5656 5658 5659 5661 5662 5664 5665 5667 5668 5670 5671 5672 5674 5675 5676 5677 5678 5678 5679 5680 5680 5681 5681 5682 5682
5618 5618 5619 5620 5621 5622 5622 5624 5625 5626 5627 5629 5630 5631 5632 5633 5633 5634 5634 5635 5635 5635 5636 5636 5636 5636 5637 5637 5637 5637 5638 5638 5639 5639 5640 5641 5642 5643 5644 5645 5647 5648 5650 5651 5652 5654 5655 5657 5658 5660 5662 5663 5665 5666 5667 5669 5670 5671 5672 5673 5674 5674 5675 5676 5676 5677 5677 5678 5678
5616 5617 5617 5618 5618 5619 5620 5622 5623 5624 5625 5626 5627 5628 5629 5630 5630 5631 5631 5631 5632 5632 5632 5632 5632 5632 5632 5633 5633 5633 5634 5634 5635 5636 5637 5637 5638 5640 5641 5642 5643 5645 5646 5647 5649 5650 5652 5653 5655 5656 5658 5659 5661 5662 5663 5665 5666 5667 5668 5669 5670 5670 5671 5671 5672 5672 5673 5674 5674
5615 5615 5616 5616 5617 5618 5619 5620 5621 5622 5623 5624 5625 5626 5627 5627 5627 5628 5628 5628 5628 5628 5628 5628 5628 5628 5629 5629 5629 5629 5630 5630 5631 5632 5632 5634 5635 5636 5637 5638 5640 5641 5642 5644 5645 5647 5648 5649 5651 5652 5654 5656 5657 5658 5659 5661 5662 5663 5664 5665 5666 5666 5667 5667 5668 5668 5669 5670 5670
5614 5614 5615 5615 5616 5617 5617 5618 5619 5620 5621 5622 5623 5624 5624 5625 5625 5625 5625 5626 5626 5625 5625 5625 5625 5625 5625 5625 5625 5626 5626 5627 5627 5628 5629 5630 5631 5632 5633 5635 5636 5637 5639 5640 5642 5643 5644 5646 5647 5649 5650 5652 5653 5654 5656 5657 5658 5659 5660 5661 5662 5662 5663 5663 5664 5665 5665 5665 5666
5613 5613 5614 5614 5615 5616 5617 5617 5618 5619 5620 5621 5622 5622 5623 5623 5623 5623 5623 5623 5623 5623 5622 5622 5622 5622 5622 5622 5622 5622 5622 5623 5623 5624 5625 5626 5627 5629 5630 5631 5632 5634 5635 5637 5638 5640 5641 5643 5644 5646 5647 5648 5650 5651 5652 5653 5655 5656 5657 5657 5658 5659 5659 5660 5660 5661 5661 5661 5661
5612 5613 5613 5614 5614 5615 5616 5617 5618 5618 5619 5620 5621 5621 5622 5622 5622 5622 5622 5622 5621 5621 5620 5620 5619 5619 5618 5618 5618 5618 5618 5619 5620 5620 5621 5622 5624 5625 5626 5628 5629 5631 5632 5634 5635 5637 5638 5640 5641 5642 5644 5645 5646 5647 5649 5650 5651 5652 5653 5654 5655 5655 5656 5656 5656 5657 5657 5657 5657
5612 5612 5612 5613 5614 5615 5616 5616 5617 5618 5618 5619 5620 5620 5621 5621 5621 5621 5620 5620 5619 5618 5618 5617 5616 5616 5615 5615 5615 5615 5615 5615 5616 5616 5617 5618 5620 5621 5623 5624 5626 5627 5629 5631 5632 5634 5635 5637 5638 5639 5641 5642 5643 5644 5645 5647 5648 5649 5650 5650 5651 5652 5652 5652 5652 5652 5653 5653 5653
5611 5612 5612 5613 5614 5614 5615 5616 5616 5617 5618 5618 5619 5619 5620 5620 5619 5619 5619 5618 5618 5617 5616 5615 5614 5613 5613 5612 5612 5611 5611 5611 5612 5612 5613 5614 5616 5617 5619 5621 5622 5624 5626 5627 5629 5631 5632 5633 5635 5636 5637 5639 5640 5641 5642 5643 5645 5646 5646 5647 5648 5648 5648 5648 5649 5649 5649 5649 5649
5612 5612 5612 5613 5613 5614 5615 5615 5616 5617 5617 5618 5618 5619 5619 5619 5618 5618 5618 5617 5617 5616 5616 5615 5614 5613 5612 5611 5610 5609 5609 5609 5609 5609 5610 5611 5612 5614 5616 5617 5619 5621 5622 5624 5626 5628 5629 5631 5632 5633 5635 5636 5637 5638 5640 5641 5642 5642 5643 5643 5644 5644 5645 5645 5645 5645 5645 5645 5644
5612 5612 5612 5613 5613 5614 5614 5615 5616 5616 5617 5617 5618 5618 5618 5618 5618 5617 5617 5617 5616 5616 5615 5614 5614 5613 5612 5611 5610 5609 5608 5608 5608 5608 5608 5609 5610 5611 5613 5614 5616 5618 5620 5621 5623 5625 5627 5628 5629 5631 5632 5633 5634 5636 5637 5637 5638 5639 5639 5640 5640 5640 5641 5641 5641 5641 5641 5640 5640
5612 5612 5612 5612 5613 5613 5614 5615 5615 5616 5617 5617 5618 5618 5618 5617 5617 5617 5616 5616 5615 5615 5615 5614 5614 5613 5612 5611 5610 5610 5609 5608 5608 5608 5608 5608 5609 5610 5611 5612 5614 5616 5617 5619 5621 5622 5624 5625 5627 5628 5629 5631 5632 5632 5633 5634 5635 5635 5636 5636 5637 5637 5637 5637 5637 5637 5637 5637 5636
5612 5612 5612 5612 5613 5613 5614 5614 5615 5616 5617 5617 5617 5617 5617 5617 5617 5616 5616 5615 5615 5615 5614 5614 5613 5613 5612 5612 5611 5611 5610 5610 5609 5609 5609 5609 5610 5610 5611 5612 5613 5615 5616 5618 5619 5621 5622 5623 5625 5626 5627 5628 5629 5630 5631 5632 5632 5633 5633 5633 5634 5634 5634 5634 5634 5634 5634 5634 5633
5612 5612 5612 5613 5613 5614 5614 5615 5615 5616 5617 5617 5617 5617 5617 5617 5617 5616 5616 5616 5615 5615 5614 5614 5614 5613 5613 5612 5612 5612 5611 5611 5611 5611 5611 5611 5611 5612 5612 5613 5614 5615 5616 5617 5619 5620 5621 5622 5623 5624 5626 5627 5627 5628 5629 5630 5630 5631 5631 5632 5632 5632 5632 5632 5632 5632 5632 5631 5631
5612 5612 5613 5613 5613 5614 5614 5615 5615 5616 5617 5617 5617 5617 5617 5617 5617 5617 5617 5616 5616 5616 5615 5615 5614 5614 5614 5613 5613 5613 5613 5613 5613 5612 5612 5613 5613 5613 5614 5614 5615 5616 5617 5618 5619 5620 5621 5622 5623 5624 5625 5626 5627 5627 5628 5628 5629 5629 5630 5630 5630 5631 5631 5631 5630 5630 5630 5630 5629
5612 5612 5613 5613 5614 5614 5614 5615 5616 5616 5617 5617 5617 5617 5617 5617 5617 5617 5617 5617 5617 5616 5616 5616 5615 5615 5615 5614 5614 5614 5614 5614 5614 5614 5614 5614 5615 5615 5615 5616 5617 5617 5618 5619 5620 5621 5622 5622 5623 5624 5625 5626 5626 5627 5627 5628 5628 5629 5629 5629 5629 5629 5629 5629 5629 5628 5628 5628 5627
5612 5612 5613 5613 5613 5614 5615 5615 5616 5617 5617 5617 5617 5618 5618 5618 5618 5618 5618 5618 5618 5617 5617 5617 5617 5616 5616 5616 5616 5616 5616 5616 5616 5616 5616 5616 5616 5617 5617 5617 5618 5619 5619 5620 5621 5621 5622 5623 5623 5624 5625 5625 5626 5626 5627 5627 5627 5627 5628 5628 5628 5627 5627 5627 5627 5627 5626 5626 5626
5612 5612 5613 5613 5614 5614 5615 5615 5616 5617 5617 5617 5618 5618 5618 5619 5619 5619 5619 5619 5619 5618 5618 5618 5618 5617 5617 5617 5617 5617 5617 5617 5617 5617 5617 5617 5617 5618 5618 5619 5619 5620 5620 5621 5621 5622 5622 5623 5623 5624 5624 5625 5625 5626 5626 5626 5626 5626 5626 5626 5626 5626 5626 5626 5625 5625 5624 5624 5623
5612 5613 5613 5614 5614 5615 5616 5616 5617 5617 5618 5618 5619 5619 5619 5619 5620 5620 5620 5620 5619 5619 5619 5619 5619 5618 5618 5618 5618 5618 5618 5618 5618 5618 5618 5618 5619 5619 5619 5620 5620 5620 5621 5621 5621 5622 5622 5623 5623 5623 5624 5624 5624 5625 5625 5625 5625 5625 5625 5625 5625 5624 5624 5624 5623 5623 5623 5622 5622
5613 5614 5614 5615 5615 5616 5617 5617 5617 5618 5619 5619 5619 5620 5620 5620 5620 5620 5620 5620 5620 5620 5620 5619 5619 5619 5619 5619 5618 5618 5618 5618 5618 5619 5619 5619 5619 5619 5620 5620 5620 5621 5621 5621 5622 5622 5622 5622 5623 5623 5623 5623 5623 5624 5624 5624 5624 5624 5623 5623 5623 5623 5622 5622 5622 5621 5621 5620 5620
5614 5615 5615 5616 5617 5617 5617 5618 5619 5619 5620 5620 5620 5620 5621 5621 5621 5621 5621 5620 5620 5620 5620 5620 5619 5619 5619 5619 5619 5619 5619 5619 5619 5619 5619 5620 5620 5620 5620 5620 5621 5621 5621 5621 5622 5622 5622 5622 5622 5622 5622 5622 5622 5622 5622 5622 5622 5622 5622 5622 5622 5621 5621 5620 5620 5619 5619 5618 5617
5616 5616 5617 5617 5618 5618 5619 5619 5619 5620 5620 5620 5621 5621 5621 5621 5621 5621 5621 5621 5620 5620 5620 5620 5620 5620 5620 5619 5619 5619 5619 5619 5620 5620 5620 5620 5620 5620 5620 5620 5621 5621 5621 5621 5621 5621 5622 5622 5622 5622 5622 5622 5622 5621 5621 5621 5621 5621 5620 5620 5619 5619 5619 5618 5618 5617 5616 5616 5615
5617 5617 5618 5618 5619 5619 5619 5620 5620 5620 5621 5621 5621 5621 5621 5621 5621 5621 5621 5621 5620 5620 5620 5620 5620 5620 5620 5620 5620 5620 5620 5620 5620 5620 5620 5620 5620 5620 5620 5620 5620 5620 5620 5620 5620 5620 5620 5620 5620 5620 5620 5620 5620 5620 5619 5619 5619 5618 5618 5618 5617 5617 5616 5616 5615 5615 5614 5613 5612
5618 5618 5618 5619 5619 5620 5620 5620 5620 5621 5621 5621 5621 5621 5621 5621 5621 5621 5621 5621 5620 5620 5620 5620 5620 5620 5620 5620 5620 5620 5620 5620 5620 5620 5619 5619 5619 5619 5619 5619 5619 5619 5619 5619 5619 5619 5619 5619 5619 5619 5619 5618 5618 5618 5618 5617 5617 5617 5616 5616 5615 5615 5614 5614 5613 5612 5612 5611 5610
5618 5618 5619 5619 5620 5620 5620 5620 5621 5621 5621 5621 5621 5621 5621 5621 5621 5621 5621 5621 5621 5620 5620 5620 5620 5620 5620 5620 5620 5620 5619 5619 5619 5619 5619 5619 5619 5619 5619 5619 5618 5618 5618 5618 5618 5618 5618 5618 5618 5618 5617 5617 5617 5617 5617 5616 5616 5615 5615 5614 5614 5613 5613 5612 5612 5611 5610 5609 5608
5618 5619 5619 5619 5620 5620 5620 5620 5621 5621 5621 5621 5621 5621 5621 5621 5621 5621 5621 5621 5621 5621 5620 5620 5620 5620 5620 5620 5620 5619 5619 5619 5619 5619 5619 5619 5618 5618 5618 5618 5618 5618 5618 5618 5618 5617 5617 5617 5617 5617 5617 5617 5616 5616 5615 5615 5614 5614 5613 5613 5612 5612 5611 5610 5609 5609 5608 5607 5606
5618 5619 5619 5620 5620 5620 5620 5621 5621 5621 5621 5621 5621 5621 5622 5622 5621 5621 5621 5621 5621 5621 5621 5620 5620 5620 5620 5620 5620 5619 5619 5619 5619 5618 5618 5618 5618 5618 5618 5617 5617 5617 5617 5617 5617 5617 5617 5616 5616 5616 5616 5615 5615 5614 5614 5613 5613 5612 5612 5611 5610 5610 5609 5608 5607 5606 5605 5604 5603
5619 5619 5619 5620 5620 5620 5620 5621 5621 5621 5621 5621 5621 5622 5622 5622 5621 5621 5621 5621 5621 5621 5621 5620 5620 5620 5620 5620 5619 5619 5619 5618 5618 5618 5618 5617 5617 5617 5617 5617 5617 5616 5616 5616 5616 5616 5615 5615 5615 5614 5614 5613 5613 5612 5612 5611 5610 5610 5609 5608 5607 5607 5606 5605 5604 5603 5602 5601 5600
5619 5619 5620 5620 5620 5620 5621 5621 5621 5621 5621 5621 5621 5622 5622 5622 5621 5621 5621 5621 5621 5620 5620 5620 5620 5620 5619 5619 5619 5618 5618 5618 5618 5617 5617 5617 5617 5616 5616 5616 5615 5615 5615 5614 5615 5614 5613 5613 5612 5612 5612 5611 5610 5609 5609 5608 5607 5607 5606 5605 5604 5603 5602 5602 5601 5600 5598 5597 5596
5619 5619 5620 5620 5620 5620 5621 5621 5621 5621 5621 5621 5621 5621 5621 5621 5621 5621 5621 5621 5620 5620 5620 5619 5619 5619 5619 5618 5618 5618 5618 5617 5617 5617 5617 5616 5616 5615 5615 5614 5614 5613 5613 5612 5612 5612 5611 5610 5610 5609 5608 5608 5607 5606 5606 5605 5604 5603 5603 5602 5601 5600 5599 5598 5597 5597 5596 5594 5593
5619 5619 5620 5620 5620 5620 5621 5621 5621 5621 5621 5621 5621 5621 5621 5621 5621 5620 5620 5620 5620 5619 5619 5619 5619 5618 5618 5618 5617 5617 5617 5617 5616 5616 5615 5615 5614 5614 5613 5613 5612 5612 5611 5610 5610 5609 5608 5607 5607 5606 5606 5605 5604 5604 5603 5602 5602 5601 5601 5600 5599 5598 5597 5596 5595 5594 5593 5592 5591
5619 5619 5620 5620 5620 5620 5620 5621 5621 5621 5621 5621 5621 5621 5621 5620 5620 5620 5619 5619 5619 5619 5619 5618 5618 5618 5617 5617 5617 5616 5616 5616 5615 5615 5614 5613 5613 5612 5612 5611 5610 5610 5609 5608 5608 5607 5606 5606 5605 5604 5604 5603 5603 5602 5602 5601 5600 5599 5598 5598 5597 5596 5595 5594 5593 5592 5591 5589 5588
5619 5619 5620 5620 5620 5620 5620 5620 5621 5621 5621 5621 5620 5620 5620 5620 5619 5619 5619 5618 5618 5618 5618 5617 5617 5617 5617 5616 5616 5615 5615 5614 5614 5613 5612 5612 5611 5611 5610 5609 5608 5608 5607 5607 5606 5606 5605 5604 5604 5603 5602 5602 5601 5601 5600 5599 5598 5597 5597 5596 5595 5594 5592 5591 5590 5589 5587 5586 5585
5619 5619 5619 5620 5620 5620 5620 5620 5620 5620 5620 5620 5620 5619 5619 5619 5619 5618 5618 5617 5617 5617 5617 5617 5616 5616 5615 5615 5614 5614 5613 5613 5612 5612 5611 5610 5610 5609 5608 5607 5607 5606 5606 5605 5605 5604 5604 5603 5602 5602 5601 5600 5600 5599 5598 5597 5596 5595 5594 5593 5592 5591 5590 5588 5587 5585 5584 5582 5581
5619 5619 5619 5619 5619 5620 5620 5620 5620 5619 5619 5619 5619 5619 5618 5618 5618 5617 5617 5617 5616 5616 5616 5615 5615 5614 5614 5613 5613 5612 5612 5611 5611 5610 5609 5608 5608 5607 5607 5606 5605 5605 5604 5604 5603 5603 5602 5602 5601 5600 5599 5598 5597 5597 5596 5595 5594 5593 5592 5590 5589 5587 5586 5584 5583 5581 5579 5577 5576
5618 5618 5619 5619 5619 5619 5619 5619 5619 5619 5618 5618 5618 5618 5617 5617 5617 5616 5616 5616 5615 5615 5614 5614 5614 5613 5612 5612 5612 5611 5610 5610 5609 5608 5607 5607 5606 5606 5605 5605 5604 5604 5603 5602 5602 5602 5601 5600 5599 5598 5597 5596 5595 5594 5593 5592 5591 5590 5589 5587 5586 5584 5582 5581 5579 5577 5575 5573 5571